Location: A�t �Alizem
(31.2076°N, 8.7872°W)
Time: 05:00:21
(UTC+00:00)

Cosmos 1821 Rocket - Pass Details

Date: 27 November 2020
Orbit: 946 x 1004 km, 82.9° (Epoch: 25 January)

Event Time Altitude Azimuth Distance (km) Brightness Sun altitude
Rises 19:23:02 0° 357° (N) 3,670 6.9 -23.2°
Reaches altitude 10° 19:25:33 10° 360° (N) 2,728 6.2 -23.8°
Maximum altitude 19:31:48 71° 84° (E) 1,042 3.9 -25.1°
Drops below altitude 10° 19:38:05 10° 167° (SSE) 2,751 6.3 -26.4°
Sets 19:40:38 0° 170° (S) 3,703 7.0 -26.9°
